Regional Weather Roundup
Issued by NWS

Home | Current Version | Previous Version | Text Only | Print | Product List | Glossary Off
Versions: 1 2 3 4 5 6 7 8 9 10 11 12 13 14 15 16 17 18 19 20 21 22 23 24 25 26 27 28 29 30 31 32 33 34 35 36 37 38 39 40 41 42 43 44 45 46 47 48 49 50

000
ASUS43 KDMX 200807
RWRIA

WEATHER ROUNDUP FOR IOWA
NATIONAL WEATHER SERVICE DES MOINES IA
300 AM CDT MON OCT 20 2014

NOTE: "FAIR" INDICATES FEW OR NO CLOUDS BELOW 12,000 FEET WITH NO
SIGNIFICANT WEATHER AND/OR OBSTRUCTIONS TO VISIBILITY.

* - THESE STATIONS ARE NOT NWS STATIONS...THUS NOT UNDER NWS
QUALITY CONTROL.  THEY ALSO DO NOT REPORT WEATHER SUCH
AS PRECIPITATION OR FOG.

IAZ001>003-012>014-020>022-031>034-043>046-200900-
   NORTHWEST IOWA

CITY           SKY/WX    TMP DP  RH WIND       PRES   REMARKS
CARROLL *      CLEAR     52  43  71 NW8       29.97R
CHEROKEE *     CLEAR     41  39  93 CALM      29.99R
DENISON *      CLEAR     45  45 100 CALM      29.97R
LE MARS *      CLEAR     37  37 100 CALM      30.01R
ORANGE CITY *  CLEAR     54  39  58 N6        30.00R
SHELDON *      CLEAR     39  37  93 NW5       29.99R
SIOUX CITY     CLEAR     41  39  93 CALM      30.00R
SPENCER        CLEAR     38  35  89 NW7       29.98R WCI  33
STORM LAKE *   CLEAR     48  39  71 N8        29.99R
$$

IAZ055>058-069>071-079>083-090>094-200900-
   SOUTHWEST IOWA

CITY           SKY/WX    TMP DP  RH WIND       PRES   REMARKS
ATLANTIC *     CLEAR     43  41  93 CALM      29.97R
AUDUBON *      CLEAR     43  37  81 CALM      29.98R
CLARINDA *     CLEAR     50  46  87 CALM      29.99R
COUNCIL BLFS * CLEAR     52  50  93 SW7       29.96S
CRESTON *      CLEAR     50  46  87 W5        29.96S
HARLAN  *      CLEAR     43  43 100 CALM      30.01R
LAMONI         CLEAR     53  47  79 W12       29.95S
RED OAK *      CLEAR     46  46 100 CALM      29.97S
SHENANDOAH *   CLEAR     48  46  93 SW3       29.98S
$$

IAZ047>049-059>061-072>074-084-200900-
   CENTRAL IOWA

CITY           SKY/WX    TMP DP  RH WIND       PRES   REMARKS
AMES           CLEAR     51  43  74 NW12      29.93R
ANKENY *       CLEAR     52  46  82 NW6       29.93R
CHARITON *     CLEAR     52  46  82 W8        29.93R
DES MOINES     CLEAR     52  46  80 NW7       29.94R
GRINNELL*      CLEAR     50  45  81 W6        29.91R
KNOXVILLE *    CLEAR     50  45  81 W9        29.91R
MARSHALLTOWN   CLEAR     47  44  90 W8        29.90R
PELLA *        CLEAR     52  46  82 W7        29.93R
PERRY *          N/A     50  46  87 NW7       29.95R
$$

IAZ004>006-015-016-023>025-035-036-200900-
   NORTH CENTRAL IOWA

CITY           SKY/WX    TMP DP  RH WIND       PRES   REMARKS
ALGONA *       CLEAR     48  41  76 NW7       29.96R
CLARION *      CLEAR     43  41  93 CALM      29.94R
ESTHERVILLE    CLEAR     42  37  82 NW9       29.96R
FORT DODGE *   CLEAR     50  39  66 N5        29.96R
MASON CITY     CLEAR     46  40  79 NW8       29.94R
FOREST CITY *  CLEAR     46  41  81 NW7       29.93R
IOWA FALLS *     N/A     46  41  81 NW8       29.93R
$$

IAZ007>011-017>019-026>030-037>042-050>054-066-200900-
   NORTHEAST IOWA

CITY           SKY/WX    TMP DP  RH WIND       PRES   REMARKS
CEDAR RAPIDS   CLEAR     47  45  93 NW7       29.87R
CHARLES CITY * CLEAR     48  43  81 NW8       29.90R
CLINTON *      CLEAR     48  43  81 W9        29.87S
DECORAH *      CLEAR     50  43  76 CALM      29.85S
DUBUQUE        CLEAR     48  44  86 W8        29.84S
MONTICELLO *   CLEAR     48  45  87 W7        29.85S
OELWEIN *      CLEAR     45  43  93 NW9       29.88R
WATERLOO       CLEAR     49  43  80 NW7       29.88R
$$

IAZ064-065-067-068-078-200900-
   EAST CENTRAL IOWA

CITY           SKY/WX    TMP DP  RH WIND       PRES   REMARKS
DAVENPORT      CLEAR     51  43  74 W12       29.86S
IOWA CITY      CLEAR     45  42  89 W6        29.89R
MT. PLEASANT * CLEAR     50  46  87 SW8       29.89S
MUSCATINE *    CLEAR     54  45  71 W8G14     29.87S
QUAD CITIES    CLEAR     51  43  74 W8        29.86S
$$

IAZ062-063-075>077-085>089-095>099-200900-
   SOUTHEAST IOWA

CITY           SKY/WX    TMP DP  RH WIND       PRES   REMARKS
BURLINGTON     CLEAR     52  47  83 SW6       29.89S
FAIRFIELD *    CLEAR     50  45  81 SW8       29.89F
FORT MADISON * CLEAR     54  48  82 SW9       29.90F
KEOKUK *       CLEAR     52  48  87 SW12      29.90F
OSKALOOSA *      N/A     50  46  87 W8        29.91R
CENTERVILLE *  CLEAR     52  48  87 SW9       29.94S
OTTUMWA        CLEAR     51  45  79 W8        29.90S
WASHINGTON *   CLEAR     50  46  87 W9        29.88F
$$

ABBREVIATIONS USED IN REMARKS
   TC - TEMPERATURES IN CELSIUS
  WCI - WIND CHILL INDEX
   HX - HEAT INDEX
  VSB - VISIBILITY
$$



USA.gov is the U.S. government's official web portal to all federal, state and local government web resources and services.